GW4068 Weather Reports


time (UTC)temp
C
wind
direction
speed
KPH
gust
KPH
rain 1hr
cm
rain 24hr
cm
rain mn
cm
humidity
%
barometer
mb
20260507081504 7 215 0.0 1.6 0.00 0.97 0.00 79 1012.9
20260507081002 7 257 0.0 1.6 0.00 0.97 0.00 80 1012.9
20260507080504 7 257 0.0 3.2 0.00 0.97 0.00 80 1012.9
20260507080006 7 321 0.0 3.2 0.00 0.97 0.00 80 1012.9
20260507075507 7 261 0.0 3.2 0.00 0.97 0.00 83 1012.9
20260507075004 7 356 0.0 3.2 0.00 0.97 0.00 83 1012.8
20260507074511 7 271 0.0 0.0 0.00 0.97 0.00 84 1012.9
20260507074003 7 271 0.0 0.0 0.00 0.97 0.00 85 1012.8
20260507073504 7 271 0.0 0.0 0.00 0.97 0.00 84 1012.8
20260507073004 7 271 0.0 0.0 0.00 0.97 0.00 86 1012.8
20260507072504 7 271 0.0 0.0 0.00 0.97 0.00 85 1012.8
20260507072004 7 271 0.0 0.0 0.00 0.97 0.00 85 1012.8
20260507071507 7 271 0.0 0.0 0.00 0.97 0.00 84 1012.9
20260507071004 7 271 0.0 0.0 0.00 0.97 0.00 84 1012.8
20260507070506 7 271 0.0 0.0 0.00 0.97 0.00 84 1012.8
20260507070009 7 271 0.0 0.0 0.00 0.97 0.00 83 1012.7
20260507065502 7 271 0.0 0.0 0.00 0.97 0.00 82 1012.7
20260507065004 7 271 0.0 0.0 0.00 0.97 0.00 82 1012.8
20260507064507 7 271 0.0 0.0 0.00 0.97 0.00 82 1012.8
20260507064002 7 271 0.0 0.0 0.00 0.97 0.00 82 1012.8
20260507063503 7 271 0.0 0.0 0.00 0.97 0.00 82 1013.0
20260507063018 7 271 0.0 0.0 0.00 0.97 0.00 82 1013.0
20260507062503 7 271 0.0 0.0 0.00 0.97 0.00 83 1013.1
20260507062002 7 271 0.0 0.0 0.00 0.97 0.00 82 1013.0
20260507061504 8 280 0.0 0.0 0.00 0.97 0.00 83 1012.9
20260507061004 8 280 0.0 0.0 0.00 0.97 0.00 82 1012.8
20260507060504 8 280 0.0 0.0 0.00 0.97 0.00 83 1012.9
20260507060007 8 280 0.0 0.0 0.00 0.97 0.00 82 1012.8
20260507055503 8 280 0.0 0.0 0.00 0.97 0.00 82 1012.8
20260507055004 9 286 0.0 1.6 0.00 0.97 0.00 83 1012.7
20260507054513 9 286 0.0 3.2 0.00 0.97 0.00 82 1012.7
20260507054003 9 276 0.0 3.2 0.00 0.97 0.00 84 1012.7
20260507053504 9 347 0.0 3.2 0.00 0.97 0.00 84 1012.7
20260507053008 9 21 0.0 1.6 0.00 0.97 0.00 83 1012.5
20260507052504 9 21 0.0 1.6 0.00 0.97 0.00 83 1012.6
20260507052009 9 21 0.0 1.6 0.00 0.97 0.00 82 1012.4
20260507051512 9 23 0.0 4.8 0.00 0.97 0.00 82 1012.6
20260507051017 9 296 0.0 4.8 0.00 0.97 0.00 84 1012.7
20260507050505 9 229 1.6 4.8 0.00 0.97 0.00 83 1012.6
20260507050023 9 224 0.0 3.2 0.00 0.97 0.00 87 1012.5
20260507045506 9 12 0.0 3.2 0.00 0.97 0.00 89 1012.4
20260507045003 9 163 0.0 0.0 0.00 0.97 0.00 89 1012.2
20260507044506 9 163 0.0 0.0 0.00 0.97 0.00 89 1012.3
20260507044004 9 163 0.0 0.0 0.00 0.97 0.00 89 1012.1
20260507043506 9 163 0.0 0.0 0.00 0.97 0.00 89 1012.3
20260507043008 9 163 0.0 0.0 0.00 0.97 0.00 90 1012.2
20260507042504 9 163 0.0 0.0 0.00 0.97 0.00 90 1012.2
20260507042006 9 163 0.0 0.0 0.00 0.97 0.00 90 1012.2
20260507041508 9 163 0.0 0.0 0.00 0.97 0.00 90 1012.3
20260507041006 9 163 0.0 0.0 0.00 0.97 0.00 90 1012.4
20260507040508 9 162 0.0 0.0 0.00 0.97 0.00 90 1012.3
20260507040013 9 163 0.0 0.0 0.00 0.97 0.00 89 1012.1
20260507035504 9 163 0.0 0.0 0.00 0.97 0.97 89 1012.1
20260507035007 9 162 0.0 0.0 0.00 0.97 0.97 89 1012.2
20260507034513 9 162 0.0 0.0 0.00 0.97 0.97 89 1012.2
20260507034006 9 162 0.0 0.0 0.00 0.97 0.97 89 1012.4
20260507033504 9 162 0.0 0.0 0.00 0.97 0.97 89 1012.3
20260507033017 9 179 0.0 0.0 0.00 0.97 0.97 89 1012.4
20260507032505 8 179 0.0 0.0 0.00 0.97 0.97 90 1012.5
20260507032008 8 264 0.0 0.0 0.00 0.97 0.97 90 1012.5
20260507031514 8 264 0.0 0.0 0.00 0.97 0.97 90 1012.3
20260507031008 8 236 0.0 0.0 0.00 0.97 0.97 90 1012.1
20260507030508 8 236 0.0 0.0 0.00 0.97 0.97 90 1012.1
20260507030012 8 234 0.0 0.0 0.00 0.97 0.97 89 1012.0
20260507025509 8 234 0.0 0.0 0.00 0.97 0.97 89 1012.1
20260507025007 8 265 0.0 0.0 0.00 0.97 0.97 89 1012.1
20260507024516 9 265 0.0 1.6 0.00 0.97 0.97 89 1012.1
20260507024007 9 265 0.0 1.6 0.00 0.97 0.97 88 1012.1
20260507023508 9 265 0.0 1.6 0.00 0.97 0.97 88 1012.1
20260507023015 9 265 0.0 1.6 0.00 0.97 0.97 88 1012.2
20260507022509 10 265 0.0 0.0 0.00 0.97 0.97 87 1012.4
20260507022008 10 266 0.0 1.6 0.00 0.97 0.97 87 1012.5
20260507021520 10 265 0.0 1.6 0.00 0.97 0.97 86 1012.7
20260507021004 10 265 0.0 1.6 0.00 0.97 0.97 86 1012.6
20260507020505 10 265 0.0 1.6 0.00 0.97 0.97 86 1012.7
20260507020014 10 265 0.0 1.6 0.00 0.97 0.97 86 1012.8
20260507015507 10 215 0.0 0.0 0.00 0.97 0.97 84 1012.5
20260507015007 10 215 0.0 0.0 0.00 0.97 0.97 85 1012.6
20260507014524 10 215 0.0 1.6 0.00 0.97 0.97 84 1012.7
20260507014009 10 215 0.0 3.2 0.00 0.97 0.97 84 1012.8
20260507013506 10 351 0.0 3.2 0.00 0.97 0.97 85 1012.8
20260507013017 10 158 0.0 6.4 0.00 0.97 0.97 84 1012.4
20260507012508 10 34 0.0 6.4 0.00 0.97 0.97 84 1012.4
20260507012012 10 236 0.0 3.2 0.00 0.97 0.97 85 1013.0
20260507011513 10 25 0.0 0.0 0.00 0.97 0.97 84 1012.9
20260507011010 10 39 0.0 0.0 0.00 0.97 0.97 84 1012.9
20260507010510 10 105 0.0 0.0 0.00 0.97 0.97 84 1012.9
20260507010016 10 108 0.0 0.0 0.00 0.97 0.97 84 1012.6
20260507005507 10 148 0.0 3.2 0.00 0.97 0.97 84 1012.4
20260507005010 10 88 0.0 3.2 0.00 0.97 0.97 84 1012.5
20260507004518 10 101 0.0 1.6 0.00 0.97 0.97 85 1012.3
20260507004013 10 128 0.0 4.8 0.00 0.97 0.97 85 1012.1
20260507003509 10 24 1.6 4.8 0.00 0.97 0.97 85 1011.9
20260507003020 10 68 0.0 6.4 0.00 0.97 0.97 84 1011.7
20260507002510 10 63 1.6 6.4 0.00 0.97 0.97 84 1011.6
20260507002010 11 49 0.0 9.7 0.00 0.97 0.97 84 1011.6
20260507001525 11 109 0.0 9.7 0.00 0.97 0.97 84 1011.5
20260507001012 11 232 1.6 8.0 0.00 0.97 0.97 84 1011.3
20260507000509 11 300 1.6 8.0 0.00 0.97 0.97 83 1011.2
20260507000032 11 68 1.6 8.0 0.00 0.97 0.97 84 1011.1
20260506235508 11 20 1.6 8.0 0.00 0.97 0.97 83 1011.1
20260506235007 11 15 1.6 8.0 0.00 0.97 0.97 83 1011.1
20260506234521 11 129 3.2 8.0 0.00 0.97 0.97 83 1010.9
20260506234011 11 354 1.6 24.1 0.00 0.97 0.97 84 1010.6
20260506233503 11 84 1.6 24.1 0.00 0.97 0.97 83 1010.5
20260506233005 11 21 3.2 9.7 0.00 0.97 0.97 84 1010.5
20260506232504 11 122 3.2 11.3 0.00 0.97 0.97 83 1010.3
20260506232004 11 307 3.2 11.3 0.00 0.97 0.97 83 1010.6
20260506231503 11 338 3.2 8.0 0.00 0.97 0.97 84 1010.4
20260506231003 11 359 1.6 9.7 0.00 0.97 0.97 84 1010.3
20260506230504 11 48 3.2 12.9 0.00 0.97 0.97 85 1010.3
20260506230008 11 11 4.8 12.9 0.00 0.97 0.97 84 1010.4
20260506225505 11 332 3.2 9.7 0.00 0.97 0.97 85 1010.1
20260506225008 11 314 3.2 9.7 0.00 0.97 0.97 85 1010.1
20260506224508 11 70 1.6 8.0 0.00 0.97 0.97 86 1010.1
20260506224006 11 79 3.2 8.0 0.00 0.97 0.97 86 1010.1
20260506223507 11 35 3.2 9.7 0.00 0.97 0.97 86 1010.1
20260506223016 11 336 3.2 17.7 0.00 0.97 0.97 86 1010.1
20260506222503 11 20 1.6 17.7 0.00 0.97 0.97 86 1010.1
20260506222003 11 354 4.8 12.9 0.00 0.97 0.97 86 1009.9
20260506221504 11 27 4.8 14.5 0.00 0.97 0.97 86 1009.8
20260506221007 11 43 4.8 14.5 0.00 0.97 0.97 87 1009.6
20260506220507 11 51 1.6 9.7 0.00 0.97 0.97 87 1009.6
20260506220012 11 305 3.2 9.7 0.03 0.97 0.97 87 1009.5
20260506215507 11 61 1.6 12.9 0.03 0.97 0.97 88 1009.4
20260506215004 11 47 3.2 12.9 0.03 0.97 0.97 88 1009.2
20260506214525 11 220 4.8 12.9 0.03 0.97 0.97 89 1009.0
20260506214004 11 359 4.8 12.9 0.03 0.97 0.97 89 1008.8
20260506213504 12 347 4.8 14.5 0.03 0.97 0.97 89 1008.8
20260506213010 12 316 6.4 14.5 0.03 0.97 0.97 88 1008.7
20260506212507 12 59 4.8 19.3 0.03 0.97 0.97 88 1008.6
20260506212006 12 280 6.4 19.3 0.03 0.97 0.97 87 1008.4
20260506211517 12 9 4.8 22.5 0.03 0.97 0.97 88 1008.5
20260506211003 12 61 6.4 22.5 0.03 0.97 0.97 87 1008.3
20260506210504 13 5 6.4 14.5 0.03 0.97 0.97 86 1008.3
20260506210009 13 331 4.8 17.7 0.00 0.94 0.94 86 1008.3
20260506205504 13 31 4.8 17.7 0.00 0.94 0.94 85 1008.0
20260506205004 14 343 6.4 17.7 0.00 0.94 0.94 84 1007.9
20260506204505 15 337 8.0 17.7 0.00 0.94 0.94 81 1007.8
20260506204002 16 49 3.2 12.9 0.00 0.94 0.94 82 1007.7
20260506203513 17 244 4.8 9.7 0.00 0.94 0.94 85 1007.6
20260506203009 17 86 1.6 1.6 0.00 0.94 0.94 85 1007.2
20260506202507 17 86 0.0 1.6 0.00 0.94 0.94 87 1007.1
20260506202008 17 86 0.0 6.4 0.00 0.94 0.94 86 1007.1
20260506201518 17 71 1.6 6.4 0.00 0.94 0.94 86 1007.1
20260506201008 17 106 1.6 3.2 0.00 0.94 0.94 86 1007.0
20260506200512 17 95 1.6 1.6 0.00 0.94 0.94 88 1007.0
20260506200018 17 97 0.0 1.6 0.00 0.94 0.94 88 1007.0
20260506195507 17 97 0.0 1.6 0.00 0.94 0.94 88 1007.1
20260506195002 17 97 0.0 1.6 0.00 0.94 0.94 90 1007.0
20260506194507 16 97 0.0 1.6 0.00 0.94 0.94 91 1007.1
20260506194003 16 97 0.0 1.6 0.00 0.94 0.94 90 1007.1
20260506193505 16 97 0.0 1.6 0.00 0.94 0.94 90 1007.2
20260506193009 16 97 0.0 1.6 0.00 0.94 0.94 90 1007.2
20260506192511 16 97 0.0 1.6 0.00 0.94 0.94 89 1007.2
20260506192008 16 154 0.0 1.6 0.00 0.94 0.94 89 1007.1
20260506191511 16 153 0.0 3.2 0.00 0.94 0.94 89 1007.0
20260506191007 16 167 0.0 3.2 0.00 0.94 0.94 89 1007.0
20260506190508 16 142 0.0 3.2 0.00 0.94 0.94 89 1007.0
20260506190014 16 134 0.0 3.2 0.00 0.94 0.94 89 1007.1
20260506185506 16 134 0.0 3.2 0.00 0.94 0.94 89 1007.1
20260506185008 16 224 0.0 1.6 0.00 0.94 0.94 89 1007.2
20260506184519 16 224 0.0 3.2 0.00 0.94 0.94 89 1007.1
20260506184009 16 224 0.0 3.2 0.00 0.94 0.94 89 1007.1
20260506183513 16 225 0.0 3.2 0.00 0.94 0.94 89 1007.1
20260506183007 16 214 0.0 1.6 0.00 0.94 0.94 89 1007.1
20260506182502 16 214 0.0 3.2 0.00 0.94 0.94 89 1007.0
20260506182004 16 214 1.6 3.2 0.00 0.94 0.94 89 1007.1
20260506181508 16 213 0.0 1.6 0.00 0.94 0.94 90 1007.1
20260506181005 16 212 0.0 3.2 0.00 0.94 0.94 90 1007.1
20260506180510 16 186 0.0 4.8 0.00 0.94 0.94 90 1007.2
20260506180012 15 212 0.0 4.8 0.00 0.94 0.94 90 1007.1
20260506175505 15 212 1.6 4.8 0.00 0.94 0.94 90 1007.2
20260506175007 15 171 0.0 4.8 0.00 0.94 0.94 90 1007.3
20260506174516 15 131 0.0 4.8 0.00 0.94 0.94 90 1007.3
20260506174007 15 216 0.0 4.8 0.00 0.94 0.94 90 1007.3
20260506173508 15 212 3.2 4.8 0.00 0.94 0.94 90 1007.2
20260506173027 15 202 1.6 3.2 0.00 0.94 0.94 91 1007.2
20260506172507 15 158 1.6 3.2 0.00 0.94 0.94 91 1007.3
20260506172007 15 199 1.6 3.2 0.00 0.94 0.94 91 1007.3
20260506171509 15 203 0.0 3.2 0.00 0.94 0.94 91 1007.4
20260506171005 15 210 1.6 3.2 0.00 0.94 0.94 91 1007.4
20260506170507 15 209 0.0 3.2 0.00 0.94 0.94 91 1007.4
20260506170008 15 212 1.6 3.2 0.00 0.94 0.94 91 1007.5
20260506165503 15 137 0.0 1.6 0.00 0.94 0.94 91 1007.6
20260506165007 15 137 0.0 1.6 0.00 0.94 0.94 92 1007.6
20260506164515 14 136 0.0 3.2 0.00 0.94 0.94 92 1007.5
20260506164008 14 217 0.0 3.2 0.00 0.94 0.94 91 1007.6
20260506163507 14 214 0.0 3.2 0.00 0.94 0.94 91 1007.6
20260506163032 14 205 1.6 1.6 0.00 0.94 0.94 92 1007.6
20260506162510 14 204 0.0 3.2 0.00 0.94 0.94 92 1007.6
20260506162010 14 204 1.6 4.8 0.00 0.94 0.94 92 1007.6
20260506161521 14 168 3.2 4.8 0.00 0.94 0.94 92 1007.6
20260506161010 14 164 3.2 3.2 0.00 0.94 0.94 92 1007.5
20260506160511 13 149 1.6 3.2 0.00 0.94 0.94 92 1007.8
20260506160024 13 145 1.6 3.2 0.03 0.94 0.94 91 1007.8
20260506155503 13 134 0.0 1.6 0.05 0.94 0.94 92 1007.8
20260506155007 13 134 0.0 1.6 0.08 0.94 0.94 92 1007.8
20260506154510 13 134 0.0 1.6 0.08 0.94 0.94 92 1007.7
20260506154009 13 134 0.0 1.6 0.10 0.94 0.94 91 1007.7
20260506153508 13 117 0.0 0.0 0.10 0.94 0.94 92 1007.7
20260506153014 13 117 0.0 0.0 0.10 0.94 0.94 91 1007.6
20260506152507 13 117 0.0 0.0 0.13 0.94 0.94 91 1007.6
20260506152009 13 101 0.0 3.2 0.13 0.94 0.94 92 1007.5
20260506151520 13 101 0.0 3.2 0.15 0.94 0.94 91 1007.5
20260506151008 13 125 0.0 1.6 0.18 0.94 0.94 91 1007.6
20260506150508 13 124 0.0 1.6 0.20 0.94 0.94 92 1007.6
20260506150027 13 217 0.0 1.6 0.18 0.91 0.91 92 1007.7
20260506145515 13 217 0.0 1.6 0.15 0.89 0.89 92 1007.6
20260506145011 13 206 1.6 4.8 0.13 0.86 0.86 91 1007.6
20260506144526 13 163 1.6 4.8 0.15 0.86 0.86 91 1007.7
20260506144008 13 159 1.6 4.8 0.13 0.84 0.84 91 1007.8
20260506143506 13 198 1.6 3.2 0.13 0.84 0.84 91 1007.8
20260506143014 13 162 1.6 3.2 0.13 0.84 0.84 91 1007.6
20260506142509 13 160 1.6 4.8 0.10 0.81 0.81 91 1007.6
20260506142003 13 146 1.6 4.8 0.10 0.81 0.81 91 1007.7
20260506141503 13 179 3.2 4.8 0.08 0.79 0.79 92 1007.8
20260506141003 13 209 0.0 1.6 0.08 0.76 0.76 92 1007.6
20260506140504 13 108 0.0 1.6 0.08 0.74 0.74 92 1007.5
20260506140006 13 108 0.0 4.8 0.10 0.74 0.74 92 1007.6
20260506135504 13 108 0.0 4.8 0.13 0.74 0.74 92 1007.6
20260506135008 13 96 0.0 3.2 0.15 0.74 0.74 92 1007.7
20260506134505 13 182 1.6 3.2 0.15 0.71 0.71 92 1007.7
20260506134007 13 207 0.0 3.2 0.18 0.71 0.71 92 1007.7
20260506133505 13 207 1.6 3.2 0.20 0.71 0.71 92 1007.7
20260506133007 13 198 0.0 1.6 0.23 0.71 0.71 92 1007.8
20260506132505 13 213 0.0 1.6 0.23 0.71 0.71 92 1007.8
20260506132007 13 214 0.0 1.6 0.25 0.71 0.71 92 1007.9
20260506131515 13 215 0.0 1.6 0.28 0.71 0.71 92 1007.8
20260506131007 13 169 0.0 1.6 0.28 0.69 0.69 92 1007.7
20260506130509 13 160 0.0 1.6 0.28 0.66 0.66 92 1007.6
20260506130004 13 160 0.0 1.6 0.28 0.64 0.64 92 1007.7
20260506125502 13 160 0.0 1.6 0.25 0.61 0.61 92 1007.8
20260506125004 13 159 0.0 0.0 0.23 0.58 0.58 92 1007.8
20260506124504 13 159 0.0 1.6 0.23 0.56 0.56 92 1008.1
20260506124004 13 159 0.0 1.6 0.20 0.53 0.53 92 1008.3
20260506123504 13 153 0.0 1.6 0.20 0.51 0.51 92 1008.2
20260506123008 13 235 0.0 0.0 0.18 0.48 0.48 92 1008.5
20260506122505 13 235 0.0 0.0 0.18 0.48 0.48 92 1008.5
20260506122005 13 235 0.0 0.0 0.15 0.48 0.46 92 1008.4
20260506121509 13 235 0.0 0.0 0.13 0.48 0.43 92 1008.5
20260506121005 13 235 0.0 1.6 0.13 0.48 0.41 92 1008.5
20260506120504 13 235 0.0 1.6 0.10 0.48 0.38 92 1008.4
20260506120017 13 235 0.0 0.0 0.08 0.46 0.36 92 1008.3
20260506115510 13 235 0.0 0.0 0.10 0.46 0.36 92 1008.0
20260506115006 13 235 0.0 0.0 0.10 0.46 0.36 92 1007.8
20260506114509 13 235 0.0 0.0 0.10 0.43 0.33 91 1007.8
20260506114004 13 235 0.0 0.0 0.13 0.43 0.33 91 1007.9
20260506113503 13 235 0.0 0.0 0.10 0.41 0.30 91 1008.0
20260506113004 13 235 0.0 1.6 0.13 0.41 0.30 91 1007.9
20260506112503 13 235 0.0 1.6 0.13 0.41 0.30 91 1007.9
20260506112003 13 235 0.0 1.6 0.13 0.41 0.30 91 1007.9
20260506111507 13 235 0.0 1.6 0.15 0.41 0.30 91 1007.8
20260506111003 13 235 0.0 1.6 0.13 0.38 0.28 91 1007.9
20260506110507 13 235 0.0 0.0 0.15 0.38 0.28 91 1007.8
20260506110014 13 235 0.0 0.0 0.15 0.38 0.28 91 1007.8
20260506105506 13 235 0.0 1.6 0.15 0.36 0.25 91 1007.8
20260506105008 13 235 0.0 1.6 0.15 0.36 0.25 91 1007.7
20260506104527 13 235 0.0 1.6 0.13 0.33 0.23 91 1007.8
20260506104009 13 234 0.0 0.0 0.10 0.30 0.20 91 1007.8
20260506103507 13 234 0.0 0.0 0.13 0.30 0.20 91 1007.8
20260506103023 13 234 0.0 0.0 0.10 0.28 0.18 91 1007.8
20260506102503 13 235 0.0 0.0 0.10 0.28 0.18 91 1007.9
20260506102011 13 234 0.0 0.0 0.10 0.28 0.18 91 1007.9
20260506101503 13 234 0.0 0.0 0.08 0.25 0.15 91 1007.8
20260506101003 13 234 0.0 0.0 0.08 0.25 0.15 91 1007.8
20260506100504 13 234 0.0 0.0 0.08 0.23 0.13 90 1007.8
20260506100008 13 234 0.0 1.6 0.08 0.23 0.13 90 1007.8
20260506095505 13 234 0.0 1.6 0.05 0.20 0.10 90 1007.7
20260506095009 13 234 0.0 1.6 0.05 0.20 0.10 90 1007.7
20260506094512 13 234 0.0 1.6 0.05 0.20 0.10 90 1007.7
20260506094008 13 234 0.0 1.6 0.08 0.20 0.10 90 1007.6
20260506093510 13 234 0.0 1.6 0.05 0.18 0.08 90 1007.6
20260506093018 13 234 0.0 1.6 0.08 0.18 0.08 90 1007.5
20260506092507 13 234 0.0 1.6 0.08 0.18 0.08 89 1007.5
20260506092011 13 234 0.0 1.6 0.08 0.23 0.08 89 1007.5
20260506091524 13 234 0.0 0.0 0.08 0.23 0.08 89 1007.4
20260506091009 13 234 0.0 0.0 0.08 0.23 0.08 88 1007.3
20260506090503 13 234 0.0 0.0 0.05 0.20 0.05 88 1007.4
20260506090008 14 153 0.0 0.0 0.05 0.20 0.05 87 1007.4
20260506085504 14 153 0.0 1.6 0.05 0.20 0.05 86 1007.4
20260506085004 14 153 0.0 1.6 0.05 0.20 0.05 85 1007.4
20260506084528 14 324 0.0 0.0 0.05 0.20 0.05 83 1007.4
20260506084007 15 326 0.0 0.0 0.03 0.18 0.03 82 1007.4
20260506083507 15 326 0.0 0.0 0.03 0.18 0.03 82 1007.5
20260506083016 15 326 0.0 0.0 0.00 0.15 0.00 81 1007.6
20260506082513 15 323 0.0 0.0 0.00 0.15 0.00 82 1007.6
20260506082008 15 321 0.0 0.0 0.00 0.15 0.00 79 1007.5